ELY2304 UWGG-UACC

Flight info

Callsign ELY2304
Flight time N/A
Altitude 37000
Route PESAB2U PESAB T765 NAMER L94 UNORO T788 NAMUD L994 DIDAL DIDAL1D
Aircraft B738/M-SDE2E3FGHIRWXY/LB1

Departure

Time 2026-04-23 17:45
Airport Nizhny Novgorod / Strigino International Airport (UWGG)

Arrival

Time N/A
Airport Nursultan Nazarbayev International Airport (UACC)
Time Latitude Longitude Altitude Speed Heading
2026-04-23 17:23 56.21947 43.78818 265 ft 0 kts 101°
2026-04-23 17:27 56.21947 43.78817 265 ft 1 kts 101°
2026-04-23 17:27 56.21952 43.78774 265 ft 4 kts 101°
2026-04-23 17:27 56.21957 43.78728 265 ft 4 kts 84°
2026-04-23 17:28 56.21952 43.78709 265 ft 1 kts 11°
2026-04-23 17:28 56.21929 43.78702 265 ft 2 kts 11°
2026-04-23 17:28 56.21928 43.78701 265 ft 0 kts 11°
2026-04-23 17:34 56.21963 43.78682 265 ft 8 kts 325°
2026-04-23 17:35 56.22043 43.78673 265 ft 16 kts 12°
2026-04-23 17:35 56.22317 43.78771 265 ft 21 kts 12°
2026-04-23 17:35 56.22455 43.78840 265 ft 20 kts 19°
2026-04-23 17:36 56.22591 43.78897 265 ft 20 kts 11°
2026-04-23 17:36 56.22724 43.78944 265 ft 19 kts 11°
2026-04-23 17:36 56.22852 43.78990 265 ft 18 kts 11°
2026-04-23 17:36 56.22976 43.79035 265 ft 18 kts 11°
2026-04-23 17:37 56.23096 43.79078 265 ft 17 kts 11°
2026-04-23 17:37 56.23212 43.79121 265 ft 17 kts 11°
2026-04-23 17:37 56.23440 43.79205 265 ft 20 kts 12°
2026-04-23 17:38 56.23591 43.79238 265 ft 23 kts
2026-04-23 17:38 56.23746 43.79248 265 ft 22 kts
2026-04-23 17:38 56.23895 43.79264 265 ft 16 kts
2026-04-23 17:38 56.23986 43.79270 265 ft 13 kts 358°
2026-04-23 17:39 56.24057 43.79228 265 ft 7 kts 325°
2026-04-23 17:39 56.24066 43.79214 265 ft 0 kts 319°
2026-04-23 17:43 56.24078 43.79189 265 ft 6 kts 308°
2026-04-23 17:43 56.24109 43.79084 266 ft 11 kts 283°
2026-04-23 17:44 56.24071 43.78987 267 ft 10 kts 198°
2026-04-23 17:44 56.23926 43.78929 266 ft 53 kts 192°
2026-04-23 17:44 56.22224 43.78332 388 ft 180 kts 192°
2026-04-23 17:45 56.20885 43.77835 881 ft 208 kts 192°
2026-04-23 17:45 56.18056 43.77055 2711 ft 205 kts 173°
2026-04-23 17:45 56.16687 43.78206 2943 ft 236 kts 141°
2026-04-23 17:46 56.15618 43.81988 3299 ft 280 kts 98°